Location: Asheville, NC
(35.6000°N, 82.5500°W)
Time: 09:34:26
(UTC-05:00)

Tiangong 1 - Pass Details

Date: 11 October 2017
Orbit: 274 x 300 km, 42.8° (Epoch: 18 December)

Event Time Altitude Azimuth Distance (km) Brightness Sun altitude
Rises 19:16:03 0° 290° (WNW) 2,087 6.1 -4.1°
Reaches altitude 10° 19:18:28 10° 311° (NW) 1,238 4.3 -4.6°
Maximum altitude 19:20:28 18° 357° (N) 888 2.9 -5.0°
Drops below altitude 10° 19:22:25 10° 43° (NE) 1,210 3.1 -5.4°
Enters shadow 19:23:32 - 56° (ENE) 1,567 3.6 -5.7°
